OBJECT R, 43891

Orbit data source: Space-Track

You're viewing an Uncataloged Satellite

Recently launched and/or uncataloged satellites may have evolving metadata. Metadata may include but not limited to: Owner, Maufacturer, Bus, Motor, and Mission.

OBJECT R, 43891 is a satellite in SSO that was launched on Thu, 27 Dec 2018 UTC via a SOYUZ-2-1A launch vehicle from the Vostochny Cosmodrome (VOSTO). Unknown objects in Earth's orbit typically refer to objects detected orbiting the Earth but have not yet been identified or cataloged. These objects could be anything from previously untracked satellites, spent rocket stages, debris from satellite collisions, or even natural meteoroids temporarily captured by Earth's gravity.

Loading next visibility...
Identifier
43891, 2018-111R
Orbit
SSO
Country
Flag of TBDTBD
Related business
None
Manufacturer
Unknown
Mission
Non-operational Civil Technology
Bus & Motor
Unknown
Mass
Unknown
Launch date (UTC)
2018-12-27 (7 years ago)
Launch vehicle
SOYUZ-2-1A
Launch site
Vostochny Cosmodrome (VOSTO)
Object type
Unknown
Shape & HBR
Box, 0.1 m
Radar Cross Section
0.080 m², Medium (>0.1 m² and < 1m²)

Expand to show TLE details & history
Last TLE update: 16 hours ago

TLE from 16 hours ago
0 OBJECT R
1 43891U 18111R   25350.36767163  .00003235  00000-0  94198-4 0  9999
2 43891  97.0144 189.4995 0019030 206.7650 153.2615 15.35919850388352
Epoch: 2025-12-16T08:49Z
TLE epoch observation values (Epoch: 2025-12-16T08:49:26.828Z)
Latitude
-0°
Longitude
-28.11518°
Altitude
472.939 km
Speed
7.623 km/s
True Right ascension
12h 37m 59s
True Declination
0° 00' 00"
Sunlit
Object was in daylight at epoch
Visualization orbit readout
Latitude
Unknown
Longitude
Unknown
Altitude
Unknown
Speed
Unknown
Apparent Right ascension
Unknown
Apparent Declination
Unknown
Sunlit
N/A
Visualization observer readout
Local Sidereal Time
23:51:40
Azimuth
Unknown
Elevation
Unknown
Doppler factor
Unknown
Orbital elements
Apogee altitude
468.122 km
Perigee altitude
442.114 km
Semi-major axis
6,833.255 km
Eccentricity
0.0019
Inclination
97.0144°
RAAN
189.4995°
Arg. of periapsis
206.765°
True anomaly
153.3594°
Mean anomaly
153.2615°
Eccentric anomaly
153.31047°
Mean motion
3.84239 °/min
Orbital period
93.69 mins
BSTAR
0.000094198
Loading maneuver chart data...
Computing Atmospheric mass density...
Loading historical data...
Loading historical data...
Loading historical data...
Loading historical data...
Loading historical data...
Loading historical data...
Loading historical data...

Documentation

Showing up to 5 results
|